Regional Weather Roundup
Issued by NWS

Home | Current Version | Previous Version | Text Only | Print | Product List | Glossary On
Versions: 1 2 3 4 5 6 7 8 9 10 11 12 13 14 15 16 17 18 19 20 21 22 23 24 25 26 27 28 29 30 31 32 33 34 35 36 37 38 39 40 41 42 43 44 45 46 47 48 49 50
000
ASUS45 KABQ 292110
RWRNM
NEW MEXICO REGIONAL WEATHER ROUNDUP
NATIONAL WEATHER SERVICE ALBUQUERQUE NM
300 PM MDT MON AUG 29 2016

NOTE: "FAIR" MEANS FEW OR NO CLOUDS BELOW 12,000 FEET AGL WITH NO
       SIGNIFICANT WEATHER OR OBSTRUCTIONS TO VISION.

      THIS PRODUCT IS RELEASED AS TWO VERSIONS.  ONE VERSION NEAR
      THE TOP OF THE HOUR CONTAINING PRELIMINARY DATA FROM ALBUQUERQUE
      AND OTHER STATIONS.  A FINAL VERSION WITH ADDITIONAL DATA IS
      ISSUED ABOUT 10 MINUTES AFTER THE HOUR.

NMZ501-503-504-510>518-292200-
NORTHWEST PLATEAU/NORTHCENTRAL MOUNTAINS

CITY           SKY/WX    TMP DP  RH WIND       PRES   REMARKS
FARMINGTON     FAIR      80  39  23 W13       30.23F
SANTA FE       FAIR      73  45  36 S9        30.29F
TAOS           FAIR      75  36  23 SE9       30.34F
ANGEL FIRE     LGT RAIN  59  48  65 E13       30.44S

$$
NMZ402-403-502-505>509-292200-
WESTCENTRAL MOUNTAINS/SOUTHWEST MOUNTAINS

CITY           SKY/WX    TMP DP  RH WIND       PRES   REMARKS
GALLUP         FAIR      77  38  24 MISG      30.29F
GRANTS         FAIR      78  38  24 NE7G28    30.31F
SILVER CITY    FAIR      80  48  33 SE3G16    30.20F

$$
NMZ407-409-411-412-292200-
SOUTHERN DESERTS

CITY           SKY/WX    TMP DP  RH WIND       PRES   REMARKS
DEMING         PTSUNNY   86  55  34 S8        30.12F
LAS CRUCES     FAIR      85  50  29 SE5       30.15F
HOLLOMAN AFB   PTSUNNY   85  55  36 SE9       30.11F
ALAMOGORDO     FAIR      84  54  34 S9G22     30.14F
T OR C         FAIR      83  43  24 VRB5      30.16F

$$
NMZ519>523-292200-
CENTRAL VALLEYS/CENTRAL HIGHLANDS

CITY           SKY/WX    TMP DP  RH WIND       PRES   REMARKS
ALBUQUERQUE    FAIR      80  47  31 E16       30.22F
DOUBLE EAGLE   PTSUNNY   79  45  29 SE9       30.26F
MORIARTY ARPT  FAIR      73  47  40 E14G20    30.30F
CLINES CORNERS FAIR      68  49  50 E14       30.36
BELEN          PTSUNNY   82  40  22 N3        30.21F
SOCORRO        FAIR      84  41  21 CALM      30.17F

$$
NMZ524>526-539-540-292200-
SOUTHCENTRAL MOUNTAINS

CITY           SKY/WX    TMP DP  RH WIND       PRES   REMARKS
RUIDOSO          N/A     61  54  77 SW9       30.37S

$$
NMZ527>531-292200-
NORTHEAST HIGHLANDS/NORTHEAST PLAINS

CITY           SKY/WX    TMP DP  RH WIND       PRES   REMARKS
LAS VEGAS      FAIR      69  49  48 VRB7      30.36F
RATON          CLOUDY    71  46  40 CALM      30.33F
CLAYTON        CLOUDY    69  58  67 E9        30.30F

$$
NMZ532>537-292200-
EASTCENTRAL PLAINS

CITY           SKY/WX    TMP DP  RH WIND       PRES   REMARKS
TUCUMCARI      CLOUDY    77  57  50 NE9       30.22F
CANNON AFB     CLOUDY    71  57  60 NE13      30.24F
CLOVIS AIRPORT CLOUDY    72  57  60 NE9       30.24F

$$
NMZ028-029-538-292200-
SOUTHEAST PLAINS

CITY           SKY/WX    TMP DP  RH WIND       PRES   REMARKS
ROSWELL        FAIR      81  57  43 E8        30.16F
ARTESIA        FAIR      82  61  47 NE10      30.14F
CARLSBAD       FAIR      84  59  42 NW8       30.11F
HOBBS          PTSUNNY   75  66  73 NE16      30.17F


$$



USA.gov is the U.S. government's official web portal to all federal, state and local government web resources and services.